www.pogodaiklimat.ru
Время
и дата
12:35 30.12
12:52 30.12
13:52 30.12
14:36 30.12
14:52 30.12
15:52 30.12
16:45 30.12
16:52 30.12
17:15 30.12
17:21 30.12
17:52 30.12
18:43 30.12
18:52 30.12
19:52 30.12
20:22 30.12
20:52 30.12
21:03 30.12
21:46 30.12
21:52 30.12
22:52 30.12
23:43 30.12
23:52 30.12
00:52 31.12
01:52 31.12
02:52 31.12
03:52 31.12
04:24 31.12
04:52 31.12
05:12 31.12
05:21 31.12
05:28 31.12
05:52 31.12
06:52 31.12
06:57 31.12
07:52 31.12
07:54 31.12
08:52 31.12
09:07 31.12
09:52 31.12
10:52 31.12
11:52 31.12
12:52 31.12
13:17 31.12
13:52 31.12
14:52 31.12
15:52 31.12
16:52 31.12
17:52 31.12
Ветер
(напр.,м/с)
Видим. Явления Облачность Т
(С)
Тd
(С)
f
(%)
Тe
(С)
Тes
(С)
Комфортность P
(гПа)
Po
(гПа)
Тmin
(С)
Tmax
(С)
R
(мм)
R24
(мм)
S
(см)
ЮЗ 2 5 км дымка 10/10 180 м +8.9 +6.7 86 +6 +6 979.7
ЮЗ 1 5 км дымка 10/10 180 м +8.9 +6.7 86 +6 +6 1011.7 979.4 +6.1 +8.9
Ю 1 5 км дымка 10/10 150 м +8.9 +6.7 86 +6 +6 1011.2 978.7
ЮЗ 1 4 км дымка 10/10 150 м +8.9 +7.2 89 +6 +6 978.4
ЮЗ 2 4 км дымка 10/10 150 м +8.9 +6.7 86 +6 +6 1010.9 978.4
Ю 1 4 км дымка 10/10 150 м +8.9 +7.2 89 +6 +6 1011.2 978.7
штиль 0 3 км дымка 10/10 210 м +8.9 +7.8 93 +8 +8 979.1
штиль 0 2 км дымка 10/10 210 м +8.9 +7.8 93 +8 +8 1011.2 978.7
Ю 1 1 км дымка 10/10 120 м +8.9 +7.8 93 +7 +7 978.7
Ю 1 2 км дымка 10/10 120 м +8.9 +7.8 93 +7 +7 978.7
штиль 0 2 км дымка 10/10 120 м +8.9 +7.8 93 +8 +8 1011.4 979.1
Ю 1 2 км дымка 10/10 150 м +8.9 +7.8 93 +7 +7 979.1
Ю 1 2 км дымка 10/10 180 м +8.9 +7.8 93 +7 +7 1011.4 979.1 +8.3 +8.9
ЮЗ 1 3 км дымка 10/10 180 м +9.4 +7.8 90 +7 +7 1011.5 979.1
ЮЗ 1 3 км дымка 10/10 120 м +9.4 +7.8 90 +7 +7 979.1
ЮЗ 1 3 км дымка 10/10 120 м +9.4 +7.8 90 +7 +7 1011.7 979.4
ЮЗ 1 8 км дымка 10/10 120 м +9.4 +7.8 90 +7 +7 979.4
ЮЗ 1 8 км дымка 10/10 150 м +9.0 +8.0 93 +7 +7 979.4
ЮЗ 1 8 км дымка 10/10 150 м +9.4 +7.8 90 +7 +7 1011.7 979.4
Ю 1 6 км дымка 10/10 120 м +8.9 +7.8 93 +7 +7 1011.5 979.1
Ю 1 6 км дымка 8/8 690 м +7.8 +6.7 93 +6 +6 979.1
ЮЗ 1 6 км дымка 8/8 630 м +8.3 +7.2 93 +6 +6 1011.4 979.1
ЮЗ 1 6 км дымка 10/10 630 м +8.3 +7.2 93 +6 +6 1011.4 979.1 +7.8 +9.4
ЮЗ 1 11 км 10/10 600 м +8.9 +7.2 89 +7 +7 1011.5 979.1
Ю 1 11 км 10/10 600 м +8.9 +7.8 93 +7 +7 1011.4 979.1
Ю 1 11 км 10/10 480 м +8.9 +7.2 89 +7 +7 1010.9 978.7
ЮВ 1 11 км 10/10 420 м +8.9 +7.2 89 +6 +6 978.1
Ю 1 10 км дымка 10/10 390 м +9.4 +7.8 90 +7 +7 1010.3 978.1
Ю 1 8 км дымка 10/10 180 м +8.9 +7.8 93 +6 +6 977.8
Ю 1 10 км дымка 10/10 150 м +8.9 +7.8 93 +6 +6 977.8
Ю 2 4 км дымка 10/10 120 м +9.4 +7.8 90 +6 +6 977.8
Ю 1 2 км дымка 10/10 60 м +9.4 +8.3 93 +7 +7 1009.9 977.8
Ю 1 2 км дымка 10/10 90 м +9.4 +8.3 93 +7 +7 1009.7 977.4 +8.3 +9.4
Ю 1 3 км дымка 10/10 90 м +9.4 +8.3 93 +7 +7 977.4
Ю 1 3 км дымка 10/10 120 м +10.0 +8.3 89 +8 +8 1010.3 978.1
ЮЗ 1 4 км дымка 10/10 120 м +10.0 +8.3 89 +8 +8 978.1
Ю 1 5 км дымка 10/10 120 м +10.0 +8.3 89 +8 +8 1010.4 978.1
Ю 1 5 км дымка 10/10 150 м +10.0 +8.3 89 +8 +8 978.1
ЮЗ 1 10 км дымка 10/10 180 м +10.6 +8.9 89 +9 +9 1010.7 978.4
Ю 2 10 км дымка 10/10 150 м +10.6 +8.9 89 +8 +8 1010.8 978.7
Ю 2 11 км 10/10 м +11.1 +8.9 86 +9 +9 1009.9 977.8
Ю 1 10 км дымка 10/10 210 м +11.7 +9.4 86 +11 +11 1008.2 976.1 +9.4 +11.7
Ю 1 11 км 8/5 240 м
[Ac]
+12.2 +10.0 86 +11 +12 975.5
Ю 2 11 км 10/2 270 м
[Ac]
+13.9 +10.0 77 +12 +14 1006.9 974.8
Ю 1 16 км 10/10 1950 м +14.4 +10.0 75 +14 +14 1006.3 974.5
Ю 2 16 км 10/8 1650 м
[Ac]
+15.0 +10.0 72 +14 +14 1005.9 973.8
ЮВ 1 16 км 10/2 1500 м
[Ac Ci]
+14.4 +10.0 75 +14 +14 1005.7 973.8
ЮВ 2 16 км 10/8 1050 м
[Ac Ci]
+13.3 +10.0 80 +12 +12 1005.5 973.5
Местоположение метеостанции Cincinnati / Northern Kentucky International Airport: широта 39.0431 долгота -84.6717 высота над уровнем моря 273 м.
В архиве по умолчанию представлена погода в Цинциннати за последние 1-2 суток. Обновление информации о фактической погоде в базе происходит ежечасно! Архивные данные за месяц целиком и за предыдущие месяцы Вы можете получить, выбрав интересующий диапазон дат из раскрывающегося списка и нажав кнопку "Ввод!".
Внимание! Архив погоды МЕТАР в базе сайта по станциям, не включенным в климатический монитор, хранится не более 60 дней. Нет смысла пытаться выбрать более раннюю дату.
*Определитесь, кто Вы:
Внимание! Время в таблицах - местное (без учета летнего времени). Для получения всемирного времени необходимо вычесть поправку, которая равна -5 ч.
Смотрите также архив погоды в соседних городах и на ближайших метеорологических станциях:
Партнеры нашего сайта:      
Пояснения к столбцам:
  • Ветер - указаны скорость ветра в м/с - средняя за 10 мин, порывы в срок и между сроками (в фигурных скобках) и направление, откуда дует ветер: С - северный,
  • СВ - северо-восточный, В - восточный, ЮВ - юго-восточный, Ю - южный, ЮЗ - юго-западный, З - западный, СЗ - северо-западный.
  • Видимость - горизонтальная дальность видимости в метрах или километрах. При видимости от 1 до 10 км при отсутствии осадков обычно наблюдается дымка, при ухудшении видимости до 1 км и менее - туман. В сухую погоду видимость может ухудшаться дымом, пылью или мглою.
  • Явления - указаны атмосферные явления, наблюдавшиеся в срок или в последний час перед сроком; фигурными скобками обозначены явления, наблюдавшиеся между сроками (за 1-3 часа до срока); квадратными скобками обозначены град или гололедные отложения с указанием их диаметра в мм.
  • Облачность - указаны через наклонную черту общая и нижняя облачность в баллах и высота нижней границы облаков в метрах; квадратными скобками обозначены формы облаков: Ci - перистые, Cs - перисто-слоистые, Cc - перисто-кучевые, Ac - высококучевые, As - высокослоистые, Sc - слоисто-кучевые, Ns - слоисто-дождевые, Cu - кучевые, Cb - кучево-дождевые. Подробнее классификацию облаков см. в Атласе облаков (PDF).
  • T - Температура воздуха - температура, измеренная на высоте 2 м над землей.
  • Td - Температура точки росы - температура, при понижении до которой содержащийся в воздухе водяной пар достигнет насыщения.
  • f - Относительная влажность воздуха - влажноcть воздуха, измеренная на высоте 2 м над землей.
  • Te - Эффективная температура - температура, которую ощущает одетый по сезону человек в тени. Характеристика душности погоды. При расчете учитывается влияние влажности воздуха и скорости ветра на теплоощущения человека.
  • Tes - Эффективная температура на солнце - температура, которую ощущает человек, с поправкой на солнечный нагрев. Характеристика знойности погоды. Зависит от высоты солнца над горизонтом, облачности и скорости ветра. Ночью, в пасмурную погоду, а также при ветре 12 м/с и более поправка равна нулю.
  • P - Атмосферное давление - приведенное к уровню моря атмосферное давление.
  • Po - Атмосферное давление - измеренное на уровне метеостанции атмосферное давление.
  • Tmin - Минимальная температура - минимум температуры воздуха на высоте 2 м над землей.
  • Tmax - Максимальная температура - максимум температуры воздуха на высоте 2 м над землей.
  • R - Количество осадков - Количество выпавших осадков за период времени, мм. При наведении курсора мыши на число - период времени, за который выпало указанное количество осадков.
  • R24 - Количество осадков - Количество выпавших осадков за 24 часа, мм.
  • S - Снежный покров - Высота снежного покрова, см. При наведении курсора мыши на число - состояние снежного покрова и степень покрытия местности в баллах.